Time,TemperatureF,DewpointF,PressureIn,WindDirection,WindDirectionDegrees,WindSpeedMPH,WindSpeedGustMPH,Humidity,HourlyPrecipIn,Conditions,Clouds,dailyrainin,SoftwareType,DateUTC
2013-07-23 00:12:00,66.0,-99.9,-100.00,North,-999,-999.0,-999.0,-999,0.00,,,0.03,,2013-07-23 04:12:00,
2013-07-23 00:22:00,66.0,-99.9,-100.00,North,-999,-999.0,-999.0,-999,0.00,,,0.03,,2013-07-23 04:22:00,
2013-07-23 00:30:00,65.0,-99.9,-100.00,North,-999,-999.0,-999.0,-999,0.00,,,0.03,,2013-07-23 04:30:00,
2013-07-23 01:02:00,65.0,-99.9,-100.00,North,-999,-999.0,-999.0,-999,0.00,,,0.03,,2013-07-23 05:02:00,
2013-07-23 01:11:00,65.0,-99.9,-100.00,North,-999,-999.0,-999.0,-999,0.00,,,0.03,,2013-07-23 05:11:00,
2013-07-23 01:22:00,65.0,-99.9,-100.00,North,-999,-999.0,-999.0,-999,0.00,,,0.03,,2013-07-23 05:22:00,
2013-07-23 01:30:00,65.0,-99.9,-100.00,North,-999,-999.0,-999.0,-999,0.01,,,0.04,,2013-07-23 05:30:00,
2013-07-23 02:11:00,65.0,-99.9,-100.00,North,-999,-999.0,-999.0,-999,0.01,,,0.04,,2013-07-23 06:11:00,
2013-07-23 02:22:00,65.0,-99.9,-100.00,North,-999,-999.0,-999.0,-999,0.01,,,0.04,,2013-07-23 06:22:00,
2013-07-23 02:30:00,65.0,-99.9,-100.00,North,-999,-999.0,-999.0,-999,0.03,,,0.07,,2013-07-23 06:30:00,
2013-07-23 03:02:00,65.0,-99.9,-100.00,North,-999,-999.0,-999.0,-999,0.03,,,0.07,,2013-07-23 07:02:00,
2013-07-23 03:12:00,65.0,-99.9,-100.00,North,-999,-999.0,-999.0,-999,0.03,,,0.07,,2013-07-23 07:12:00,
2013-07-23 03:22:00,65.0,-99.9,-100.00,North,-999,-999.0,-999.0,-999,0.03,,,0.07,,2013-07-23 07:22:00,
2013-07-23 03:30:00,65.0,-99.9,-100.00,North,-999,-999.0,-999.0,-999,0.05,,,0.12,,2013-07-23 07:30:00,
2013-07-23 04:11:00,65.0,-99.9,-100.00,North,-999,-999.0,-999.0,-999,0.05,,,0.12,,2013-07-23 08:11:00,
2013-07-23 04:22:00,65.0,-99.9,-100.00,North,-999,-999.0,-999.0,-999,0.05,,,0.12,,2013-07-23 08:22:00,
2013-07-23 04:30:00,65.0,-99.9,-100.00,North,-999,-999.0,-999.0,-999,0.78,,,0.90,,2013-07-23 08:30:00,
2013-07-23 05:11:00,65.0,-99.9,-100.00,North,-999,-999.0,-999.0,-999,0.78,,,0.90,,2013-07-23 09:11:00,
2013-07-23 05:22:00,65.0,-99.9,-100.00,North,-999,-999.0,-999.0,-999,0.78,,,0.90,,2013-07-23 09:22:00,
2013-07-23 05:30:00,65.0,-99.9,-100.00,North,-999,-999.0,-999.0,-999,0.36,,,1.26,,2013-07-23 09:30:00,
2013-07-23 06:11:00,65.0,-99.9,-100.00,North,-999,-999.0,-999.0,-999,0.36,,,1.26,,2013-07-23 10:11:00,
2013-07-23 06:22:00,65.0,-99.9,-100.00,North,-999,-999.0,-999.0,-999,0.36,,,1.26,,2013-07-23 10:22:00,
2013-07-23 06:30:00,64.0,-99.9,-100.00,North,-999,-999.0,-999.0,-999,0.24,,,1.50,,2013-07-23 10:30:00,
2013-07-23 07:02:00,64.0,-99.9,-100.00,North,-999,-999.0,-999.0,-999,0.24,,,1.50,,2013-07-23 11:02:00,
2013-07-23 07:12:00,64.0,-99.9,-100.00,North,-999,-999.0,-999.0,-999,0.24,,,1.50,,2013-07-23 11:12:00,
2013-07-23 07:22:00,64.0,-99.9,-100.00,North,-999,-999.0,-999.0,-999,0.24,,,1.50,,2013-07-23 11:22:00,
2013-07-23 07:30:00,64.0,-99.9,-100.00,North,-999,-999.0,-999.0,-999,0.15,,,1.65,,2013-07-23 11:30:00,
2013-07-23 08:02:00,64.0,-99.9,-100.00,North,-999,-999.0,-999.0,-999,0.15,,,1.65,,2013-07-23 12:02:00,
2013-07-23 08:12:00,64.0,-99.9,-100.00,North,-999,-999.0,-999.0,-999,0.15,,,1.65,,2013-07-23 12:12:00,
2013-07-23 08:22:00,64.0,-99.9,-100.00,North,-999,-999.0,-999.0,-999,0.15,,,1.65,,2013-07-23 12:22:00,
2013-07-23 08:30:00,64.0,-99.9,-100.00,North,-999,-999.0,-999.0,-999,0.41,,,2.06,,2013-07-23 12:30:00,
2013-07-23 09:11:00,64.0,-99.9,-100.00,North,-999,-999.0,-999.0,-999,0.41,,,2.06,,2013-07-23 13:11:00,
2013-07-23 09:22:00,64.0,-99.9,-100.00,North,-999,-999.0,-999.0,-999,0.41,,,2.06,,2013-07-23 13:22:00,
2013-07-23 09:30:00,64.0,-99.9,-100.00,North,-999,-999.0,-999.0,-999,0.04,,,2.10,,2013-07-23 13:30:00,
2013-07-23 10:12:00,64.0,-99.9,-100.00,North,-999,-999.0,-999.0,-999,0.04,,,2.10,,2013-07-23 14:12:00,
2013-07-23 10:22:00,64.0,-99.9,-100.00,North,-999,-999.0,-999.0,-999,0.04,,,2.10,,2013-07-23 14:22:00,
2013-07-23 10:30:00,65.0,-99.9,-100.00,North,-999,-999.0,-999.0,-999,0.01,,,2.09,,2013-07-23 14:30:00,
2013-07-23 11:12:00,65.0,-99.9,-100.00,North,-999,-999.0,-999.0,-999,0.01,,,2.09,,2013-07-23 15:12:00,
2013-07-23 11:24:00,65.0,-99.9,-100.00,North,-999,-999.0,-999.0,-999,0.01,,,2.09,,2013-07-23 15:24:00,
2013-07-23 11:30:00,67.0,-99.9,-100.00,North,-999,-999.0,-999.0,-999,0.00,,,2.08,,2013-07-23 15:30:00,
2013-07-23 12:12:00,67.0,-99.9,-100.00,North,-999,-999.0,-999.0,-999,0.00,,,2.08,,2013-07-23 16:12:00,
2013-07-23 12:22:00,67.0,-99.9,-100.00,North,-999,-999.0,-999.0,-999,0.00,,,2.08,,2013-07-23 16:22:00,
2013-07-23 12:30:00,67.0,-99.9,-100.00,North,-999,-999.0,-999.0,-999,0.00,,,2.08,,2013-07-23 16:30:00,
2013-07-23 13:11:00,67.0,-99.9,-100.00,North,-999,-999.0,-999.0,-999,0.00,,,2.08,,2013-07-23 17:11:00,
2013-07-23 13:22:00,67.0,-99.9,-100.00,North,-999,-999.0,-999.0,-999,0.00,,,2.08,,2013-07-23 17:22:00,
2013-07-23 13:30:00,68.0,-99.9,-100.00,North,-999,-999.0,-999.0,-999,0.00,,,-99.99,,2013-07-23 17:30:00,
2013-07-23 14:07:00,68.0,-99.9,-100.00,North,-999,-999.0,-999.0,-999,0.00,,,-99.99,,2013-07-23 18:07:00,
2013-07-23 14:14:00,68.0,-99.9,-100.00,North,-999,-999.0,-999.0,-999,0.00,,,-99.99,,2013-07-23 18:14:00,
2013-07-23 15:04:00,70.0,-99.9,-100.00,North,-999,-999.0,-999.0,-999,0.00,,,2.08,,2013-07-23 19:04:00,
2013-07-23 15:16:00,70.0,-99.9,-100.00,North,-999,-999.0,-999.0,-999,0.00,,,2.08,,2013-07-23 19:16:00,
2013-07-23 15:29:00,70.0,-99.9,-100.00,North,-999,-999.0,-999.0,-999,0.00,,,2.08,,2013-07-23 19:29:00,
2013-07-23 15:30:00,71.0,-99.9,-100.00,North,-999,-999.0,-999.0,-999,0.00,,,2.08,,2013-07-23 19:30:00,
2013-07-23 16:09:00,71.0,-99.9,-100.00,North,-999,-999.0,-999.0,-999,0.00,,,2.08,,2013-07-23 20:09:00,
2013-07-23 16:16:00,71.0,-99.9,-100.00,North,-999,-999.0,-999.0,-999,0.00,,,2.08,,2013-07-23 20:16:00,
2013-07-23 16:26:00,71.0,-99.9,-100.00,North,-999,-999.0,-999.0,-999,0.00,,,2.08,,2013-07-23 20:26:00,
2013-07-23 16:30:00,74.0,-99.9,-100.00,North,-999,-999.0,-999.0,-999,0.00,,,2.08,,2013-07-23 20:30:00,
2013-07-23 17:16:00,74.0,-99.9,-100.00,North,-999,-999.0,-999.0,-999,0.00,,,2.08,,2013-07-23 21:16:00,
2013-07-23 17:25:00,74.0,-99.9,-100.00,North,-999,-999.0,-999.0,-999,0.00,,,2.08,,2013-07-23 21:25:00,
2013-07-23 17:30:00,74.0,-99.9,-100.00,North,-999,-999.0,-999.0,-999,0.00,,,2.08,,2013-07-23 21:30:00,
2013-07-23 18:06:00,74.0,-99.9,-100.00,North,-999,-999.0,-999.0,-999,0.00,,,2.08,,2013-07-23 22:06:00,
2013-07-23 18:14:00,74.0,-99.9,-100.00,North,-999,-999.0,-999.0,-999,0.00,,,2.08,,2013-07-23 22:14:00,
2013-07-23 18:25:00,74.0,-99.9,-100.00,North,-999,-999.0,-999.0,-999,0.00,,,2.08,,2013-07-23 22:25:00,
2013-07-23 18:30:00,72.0,-99.9,-100.00,North,-999,-999.0,-999.0,-999,0.00,,,2.08,,2013-07-23 22:30:00,
2013-07-23 19:15:00,72.0,-99.9,-100.00,North,-999,-999.0,-999.0,-999,0.00,,,2.08,,2013-07-23 23:15:00,
2013-07-23 19:27:00,72.0,-99.9,-100.00,North,-999,-999.0,-999.0,-999,0.00,,,2.08,,2013-07-23 23:27:00,
2013-07-23 19:30:00,71.0,-99.9,-100.00,North,-999,-999.0,-999.0,-999,0.00,,,2.08,,2013-07-23 23:30:00,
2013-07-23 20:16:00,71.0,-99.9,-100.00,North,-999,-999.0,-999.0,-999,0.00,,,2.08,,2013-07-24 00:16:00,
2013-07-23 20:27:00,71.0,-99.9,-100.00,North,-999,-999.0,-999.0,-999,0.00,,,2.08,,2013-07-24 00:27:00,
2013-07-23 20:30:00,69.0,-99.9,-100.00,North,-999,-999.0,-999.0,-999,0.00,,,2.08,,2013-07-24 00:30:00,
2013-07-23 21:06:00,69.0,-99.9,-100.00,North,-999,-999.0,-999.0,-999,0.00,,,2.08,,2013-07-24 01:06:00,
2013-07-23 21:25:00,69.0,-99.9,-100.00,North,-999,-999.0,-999.0,-999,0.00,,,2.08,,2013-07-24 01:25:00,
2013-07-23 21:30:00,68.0,-99.9,-100.00,North,-999,-999.0,-999.0,-999,0.00,,,2.08,,2013-07-24 01:30:00,
2013-07-23 22:07:00,68.0,-99.9,-100.00,North,-999,-999.0,-999.0,-999,0.00,,,2.08,,2013-07-24 02:07:00,
2013-07-23 22:19:00,68.0,-99.9,-100.00,North,-999,-999.0,-999.0,-999,0.00,,,2.08,,2013-07-24 02:19:00,
2013-07-23 22:28:00,68.0,-99.9,-100.00,North,-999,-999.0,-999.0,-999,0.00,,,2.08,,2013-07-24 02:28:00,
2013-07-23 22:30:00,66.0,-99.9,-100.00,North,-999,-999.0,-999.0,-999,0.00,,,2.08,,2013-07-24 02:30:00,
2013-07-23 23:15:00,66.0,-99.9,-100.00,North,-999,-999.0,-999.0,-999,0.00,,,2.08,,2013-07-24 03:15:00,
2013-07-23 23:26:00,66.0,-99.9,-100.00,North,-999,-999.0,-999.0,-999,0.00,,,2.08,,2013-07-24 03:26:00,
2013-07-23 23:30:00,65.0,-99.9,-100.00,North,-999,-999.0,-999.0,-999,0.00,,,2.08,,2013-07-24 03:30:00,